Location: Haskovo
(41.9227°N, 25.5707°E)
Time: 22:24:48
(UTC+03:00)

ISS - Pass Details

Date: 21 May 2025
Orbit: 415 x 416 km, 51.6° (Epoch: 16 June)

Event Time Altitude Azimuth Distance (km) Brightness Sun altitude
Rises 21:41:16 0° 307° (NW) 2,362 2.3 -10.6°
Reaches altitude 10° 21:43:44 10° 325° (NW) 1,496 0.5 -11.0°
Maximum altitude 21:46:20 20° 15° (NNE) 1,015 -1.5 -11.4°
Drops below altitude 10° 21:48:56 10° 66° (ENE) 1,491 -1.2 -11.7°
Enters shadow 21:49:52 - 75° (ENE) 1,800 -0.9 -11.9°
